Date String (YYYY-MM-DD hh:mm:ss) UTC,Instrument flags,absolute air pressure of the measurement (hPa),sample flow rate (lpm),inlet stack bypass flow (lpm),air temperature of the measurement (°C),ambient temperature measured by the external sensor (°C),aerosol sample conditioner tube jacket temperature (°C),OPC LED temperature (°C),internal box temperature (°C),relative humidity of the measurement (%),span deviation,mass concentration of particles derived from Lorenz-Mie calculation of OPC scattering (μg/m³),mass concentration of particles derived from Lorenz-Mie calculation of OPC scattering (μg/m³),mass concentration of particles derived from Lorenz-Mie calculation of OPC scattering (μg/m³)
DateTimeUTC,F1_M11,P_M11,Q1_M11,Q2_M11,T1_M11,T2_M11,T3_M11,T4_M11,T5_M11,U1_M11,ZSPAN_M11,X2_M11,X0_M11,X1_M11
2023-11-21 02:00:00,SystemResetWarning,0839.4,5.00,000.00,023.3,022.3,000.0,031.6,024.5,14.4,0000.0,0001.25,0002.21,0000.94
2023-11-21 02:01:00,SystemResetWarning,0839.4,5.01,000.00,023.3,022.3,000.0,031.6,024.6,14.5,0000.0,0001.26,0002.28,0000.93
2023-11-21 02:02:00,SystemResetWarning,0839.5,4.99,000.00,023.3,022.3,000.0,031.5,024.6,14.5,0000.0,0001.25,0002.51,0000.93
2023-11-21 02:03:00,SystemResetWarning,0839.4,4.99,000.00,023.3,022.3,000.0,031.6,024.5,14.4,0000.0,0001.25,0002.41,0000.93
2023-11-21 02:04:00,SystemResetWarning,0839.5,4.99,000.00,023.3,022.3,000.0,031.5,024.5,14.4,0000.0,0001.27,0002.45,0000.93
2023-11-21 02:05:00,SystemResetWarning,0839.5,4.99,000.00,023.3,022.3,000.0,031.6,024.6,14.4,0000.0,0001.27,0002.82,0000.93
2023-11-21 02:06:00,SystemResetWarning,0839.5,5.00,000.00,023.3,022.3,000.0,031.5,024.5,14.3,0000.0,0001.25,0003.02,0000.93
2023-11-21 02:07:00,SystemResetWarning,0839.5,5.01,000.00,023.3,022.3,000.0,031.5,024.5,14.3,0000.0,0001.26,0003.00,0000.93
2023-11-21 02:08:00,SystemResetWarning,0839.5,5.01,000.00,023.3,022.3,000.0,031.6,024.5,14.3,0000.0,0001.25,0002.93,0000.93
2023-11-21 02:09:00,SystemResetWarning,0839.5,5.00,000.00,023.3,022.3,000.0,031.5,024.6,14.3,0000.0,0001.19,0002.81,0000.94
2023-11-21 02:10:00,SystemResetWarning,0839.5,5.00,000.00,023.3,022.3,000.0,031.5,024.6,14.3,0000.0,0001.17,0002.77,0000.94
2023-11-21 02:11:00,SystemResetWarning,0839.5,5.00,000.00,023.3,022.3,000.0,031.5,024.6,14.4,0000.0,0001.20,0002.93,0000.94
2023-11-21 02:12:00,SystemResetWarning,0839.5,5.00,000.00,023.3,022.3,000.0,031.5,024.6,14.3,0000.0,0001.20,0003.01,0000.93
2023-11-21 02:13:00,SystemResetWarning,0839.5,5.00,000.00,023.3,022.3,000.0,031.5,024.6,14.3,0000.0,0001.23,0002.90,0000.93
2023-11-21 02:14:00,SystemResetWarning,0839.6,5.00,000.00,023.3,022.3,000.0,031.5,024.5,14.3,0000.0,0001.25,0002.95,0000.93
2023-11-21 02:15:00,SystemResetWarning,0839.7,5.00,000.00,023.3,022.3,000.0,031.5,024.5,14.3,0000.0,0001.27,0002.98,0000.93
2023-11-21 02:16:00,SystemResetWarning,0839.7,5.00,000.00,023.3,022.3,000.0,031.5,024.5,14.3,0000.0,0001.29,0002.91,0000.93
2023-11-21 02:17:00,SystemResetWarning,0839.7,5.00,000.00,023.3,022.3,000.0,031.5,024.5,14.3,0000.0,0001.27,0002.51,0000.91
2023-11-21 02:18:00,SystemResetWarning,0839.7,5.00,000.00,023.3,022.3,000.0,031.5,024.6,14.3,0000.0,0001.26,0002.47,0000.91
2023-11-21 02:19:00,SystemResetWarning,0839.7,5.00,000.00,023.3,022.3,000.0,031.5,024.5,14.3,0000.0,0001.23,0002.39,0000.91
2023-11-21 02:20:00,SystemResetWarning,0839.7,5.00,000.00,023.2,022.3,000.0,031.5,024.5,14.3,0000.0,0001.25,0002.44,0000.90
2023-11-21 02:21:00,SystemResetWarning,0839.7,5.00,000.00,023.2,022.3,000.0,031.5,024.5,14.3,0000.0,0001.28,0002.52,0000.91
2023-11-21 02:22:00,SystemResetWarning,0839.7,4.99,000.00,023.2,022.3,000.0,031.5,024.5,14.3,0000.0,0001.27,0002.44,0000.90
2023-11-21 02:23:00,SystemResetWarning,0839.8,5.00,000.00,023.2,022.3,000.0,031.5,024.5,14.3,0000.0,0001.23,0002.28,0000.90
2023-11-21 02:24:00,SystemResetWarning,0839.8,5.01,000.00,023.2,022.3,000.0,031.5,024.5,14.3,0000.0,0001.21,0002.20,0000.90
2023-11-21 02:25:00,SystemResetWarning,0839.7,5.01,000.00,023.2,022.3,000.0,031.5,024.5,14.3,0000.0,0001.20,0002.83,0000.90
2023-11-21 02:26:00,SystemResetWarning,0839.7,5.01,000.00,023.2,022.3,000.0,031.5,024.5,14.3,0000.0,0001.18,0003.72,0000.90
2023-11-21 02:27:00,SystemResetWarning,0839.7,5.00,000.00,023.2,022.3,000.0,031.5,024.5,14.3,0000.0,0001.18,0003.66,0000.90
2023-11-21 02:28:00,SystemResetWarning,0839.7,4.99,000.00,023.2,022.3,000.0,031.5,024.5,14.3,0000.0,0001.21,0003.79,0000.91
2023-11-21 02:29:00,SystemResetWarning,0839.7,4.99,000.00,023.2,022.3,000.0,031.5,024.5,14.3,0000.0,0001.25,0003.93,0000.92
2023-11-21 02:30:00,SystemResetWarning,0839.7,4.99,000.00,023.2,022.2,000.0,031.5,024.5,14.3,0000.0,0001.26,0004.97,0000.92
2023-11-21 02:31:00,SystemResetWarning,0839.6,5.00,000.00,023.2,022.2,000.0,031.5,024.5,14.3,0000.0,0001.27,0005.09,0000.92
2023-11-21 02:32:00,SystemResetWarning,0839.7,5.00,000.00,023.2,022.2,000.0,031.5,024.5,14.3,0000.0,0001.25,0005.36,0000.91
2023-11-21 02:33:00,SystemResetWarning,0839.7,5.00,000.00,023.2,022.2,000.0,031.5,024.5,14.3,0000.0,0001.26,0005.43,0000.92
2023-11-21 02:34:00,SystemResetWarning,0839.7,5.00,000.00,023.2,022.2,000.0,031.5,024.5,14.3,0000.0,0001.27,0005.53,0000.93
2023-11-21 02:35:00,SystemResetWarning,0839.7,5.00,000.00,023.2,022.2,000.0,031.5,024.5,14.3,0000.0,0001.30,0005.64,0000.93
2023-11-21 02:36:00,SystemResetWarning,0839.7,5.00,000.00,023.2,022.2,000.0,031.5,024.5,14.3,0000.0,0001.31,0005.05,0000.94
2023-11-21 02:37:00,SystemResetWarning,0839.7,5.00,000.00,023.2,022.2,000.0,031.5,024.5,14.3,0000.0,0001.33,0004.20,0000.94
2023-11-21 02:38:00,SystemResetWarning,0839.7,5.00,000.00,023.2,022.2,000.0,031.5,024.5,14.4,0000.0,0001.30,0004.11,0000.95
2023-11-21 02:39:00,SystemResetWarning,0839.7,5.00,000.00,023.2,022.2,000.0,031.5,024.5,14.3,0000.0,0001.29,0003.87,0000.96
2023-11-21 02:40:00,SystemResetWarning,0839.7,5.00,000.00,023.2,022.2,000.0,031.5,024.5,14.4,0000.0,0001.27,0003.77,0000.96
2023-11-21 02:41:00,SystemResetWarning,0839.7,5.00,000.00,023.2,022.2,000.0,031.5,024.5,14.4,0000.0,0001.27,0002.81,0000.97
2023-11-21 02:42:00,SystemResetWarning,0839.8,5.00,000.00,023.2,022.2,000.0,031.5,024.5,14.4,0000.0,0001.25,0002.67,0000.97
2023-11-21 02:43:00,SystemResetWarning,0839.8,5.00,000.00,023.2,022.2,000.0,031.5,024.4,14.4,0000.0,0001.26,0002.35,0000.98
2023-11-21 02:44:00,SystemResetWarning,0839.7,4.99,000.00,023.2,022.2,000.0,031.5,024.5,14.4,0000.0,0001.28,0002.34,0000.99
2023-11-21 02:45:00,SystemResetWarning,0839.8,4.99,000.00,023.2,022.2,000.0,031.5,024.5,14.4,0000.0,0001.31,0002.33,0000.98
2023-11-21 02:46:00,SystemResetWarning,0839.8,5.00,000.00,023.2,022.2,000.0,031.5,024.5,14.4,0000.0,0001.31,0002.24,0000.99
2023-11-21 02:47:00,SystemResetWarning,0839.8,4.99,000.00,023.2,022.2,000.0,031.5,024.5,14.4,0000.0,0001.29,0003.22,0001.00
2023-11-21 02:48:00,SystemResetWarning,0839.8,5.00,000.00,023.2,022.2,000.0,031.5,024.4,14.4,0000.0,0001.26,0003.09,0000.99
2023-11-21 02:49:00,SystemResetWarning,0839.8,5.00,000.00,023.2,022.2,000.0,031.5,024.4,14.4,0000.0,0001.28,0003.05,0001.00
2023-11-21 02:50:00,SystemResetWarning,0839.9,5.00,000.00,023.2,022.2,000.0,031.5,024.4,14.4,0000.0,0001.24,0002.99,0000.98
2023-11-21 02:51:00,SystemResetWarning,0839.9,5.00,000.00,023.2,022.2,000.0,031.5,024.5,14.4,0000.0,0001.24,0002.97,0000.99
2023-11-21 02:52:00,SystemResetWarning,0839.9,5.00,000.00,023.2,022.2,000.0,031.5,024.5,14.4,0000.0,0001.26,0003.00,0000.99
2023-11-21 02:53:00,SystemResetWarning,0839.8,5.01,000.00,023.2,022.2,000.0,031.5,024.5,14.4,0000.0,0001.27,0003.02,0000.99
2023-11-21 02:54:00,SystemResetWarning,0839.8,5.00,000.00,023.2,022.2,000.0,031.5,024.5,14.4,0000.0,0001.26,0003.00,0000.99
2023-11-21 02:55:00,SystemResetWarning,0839.9,5.01,000.00,023.2,022.2,000.0,031.5,024.5,14.4,0000.0,0001.25,0002.98,0000.99
2023-11-21 02:56:00,SystemResetWarning,0839.9,5.00,000.00,023.2,022.2,000.0,031.5,024.5,14.5,0000.0,0001.23,0003.76,0000.99
2023-11-21 02:57:00,SystemResetWarning,0839.9,5.00,000.00,023.2,022.2,000.0,031.5,024.4,14.5,0000.0,0001.21,0004.29,0000.98
2023-11-21 02:58:00,SystemResetWarning,0839.9,5.00,000.00,023.2,022.2,000.0,031.5,024.4,14.5,0000.0,0001.21,0003.67,0000.97
2023-11-21 02:59:00,SystemResetWarning,0839.9,5.00,000.00,023.2,022.2,000.0,031.5,024.4,14.5,0000.0,0001.20,0003.39,0000.98
